Home   Weather   Szczecin   Past weeks

Flag for Poland Past Weather in Szczecin, Poland — Yesterday and Last 2 Weeks

Now
61 °F

Light rain. Fog.


Feels Like: 61 °F
Forecast: 61 / 74 °F
Wind: 8 mph from North

Location: Szczecin Airport

Current Time: Jul 26, 2017 at 5:00:49 am

Latest Report: Jul 26, 2017 at 4:00 am


Visibility: 3 mi

Pressure: 29.47 "Hg

Humidity: 100%

Dew Point: 61 °F

Location of SzczecinLocation

Past Weather in Szczecin — Graph

°F

Szczecin Temperature Yesterday

Maximum temperature yesterday: 64 °F (at 2:30 pm)
Minimum temperature yesterday: 59 °F (at 2:30 am)
Average temperature yesterday: 62 °F

High & Low Weather Summary for the Past Weeks

 TemperatureHumidityPressure
High79 °F (Jul 20, 3:00 pm)100% (Jul 11, 4:00 am)30.18 "Hg (Jul 11, 4:00 am)
Low46 °F (Jul 14, 4:00 am)43% (Jul 15, 6:00 pm)29.47 "Hg (Jul 26, 3:30 am)
Average63 °F81%29.93 "Hg
* Reported Jul 11 3:00 am — Jul 26 3:30 am, Szczecin. Weather by CustomWeather, © 2017

Note: Actual official high and low records may vary slightly from our data, if they occured in-between our weather recording intervals... More about our weather records

Advertising

Szczecin Weather History for the Previous 24 Hours

Scroll right to see more
 ConditionsComfort  
Time TempWeatherWind HumidityBarometerVisibility
3:30 am
Wed, Jul 26
61 °FLight rain. Mostly cloudy.7 mph100%29.47 "Hg5 mi
3:00 am61 °FLight rain. Passing clouds.7 mph100%29.50 "HgN/A
2:30 am61 °FLight rain. Mostly cloudy.8 mph100%29.50 "HgN/A
2:00 am63 °FLight rain. Passing clouds.8 mph94%29.50 "HgN/A
1:30 am63 °FLight rain. Mostly cloudy.7 mph94%29.53 "HgN/A
1:00 am63 °FLight rain. Mostly cloudy.6 mph100%29.53 "HgN/A
12:30 am63 °FLight rain. Passing clouds.5 mph100%29.53 "HgN/A
12:00 am63 °FLight rain. Mostly cloudy.5 mph100%29.53 "HgN/A
11:30 pm
Tue, Jul 25
63 °FPassing clouds.6 mph100%29.53 "HgN/A
11:00 pm63 °FMostly cloudy.6 mph94%29.53 "HgN/A
10:30 pm63 °FLight rain. Passing clouds.6 mph94%29.53 "HgN/A
10:00 pm63 °FLight rain. Mostly cloudy.8 mph94%29.53 "HgN/A
9:30 pm63 °FLight rain. Partly cloudy.7 mph100%29.53 "Hg5 mi
9:00 pm63 °FLight rain. Partly sunny.6 mph100%29.53 "Hg5 mi
8:30 pm64 °FLight rain. Partly sunny.5 mph94%29.53 "Hg5 mi
8:00 pm64 °FRain. Fog.7 mph94%29.53 "Hg2 mi
7:30 pm64 °FLight rain. Partly sunny.7 mph94%29.53 "Hg4 mi
7:00 pm64 °FLight rain. Partly sunny.10 mph94%29.53 "HgN/A
6:30 pm64 °FLight rain. Partly sunny.9 mph94%29.53 "HgN/A
6:00 pm64 °FLight rain. Partly sunny.9 mph94%29.53 "HgN/A
5:30 pm64 °FLight rain. Partly sunny.9 mph94%29.53 "HgN/A
5:00 pm64 °FLight rain. Partly sunny.8 mph94%29.53 "Hg5 mi
4:30 pm64 °FLight rain. Partly sunny.8 mph94%29.53 "Hg5 mi
4:00 pm64 °FLight rain. Broken clouds.9 mph94%29.53 "Hg5 mi
3:30 pm64 °FLight rain. Broken clouds.9 mph94%29.53 "Hg5 mi
3:00 pm64 °FLight rain. Partly sunny.12 mph94%29.53 "Hg4 mi
2:30 pm64 °FLight rain. Mostly cloudy.9 mph94%29.53 "Hg5 mi
2:00 pm63 °FLight rain. Partly sunny.10 mph94%29.53 "Hg5 mi
1:30 pm63 °FLight rain. Low clouds.12 mph94%29.53 "Hg5 mi
1:00 pm63 °FLight rain. Partly sunny.12 mph94%29.53 "Hg5 mi
12:30 pm61 °FRain. Fog.9 mph100%29.56 "Hg2 mi
12:00 pm61 °FLight rain. Partly sunny.7 mph100%29.56 "Hg5 mi
11:30 am61 °FLight rain. More clouds than sun.5 mph100%29.56 "Hg4 mi
11:00 am61 °FRain. Fog.6 mph94%29.56 "Hg2 mi
10:30 am61 °FLight rain. Fog.5 mph94%29.59 "Hg2 mi
10:00 am61 °FLight rain. Broken clouds.3 mph94%29.59 "Hg4 mi
9:30 am61 °FLight rain. Broken clouds.6 mph94%29.59 "Hg4 mi
9:00 am61 °FLight rain. Mostly cloudy.6 mph100%29.59 "Hg5 mi
8:30 am61 °FLight rain. Mostly cloudy.6 mph94%29.62 "Hg5 mi
8:00 am59 °FLight rain. Low clouds.6 mph100%29.62 "Hg5 mi
7:30 am59 °FLight rain. Low clouds.7 mph100%29.62 "Hg4 mi
7:00 am59 °FLight rain. Fog.6 mph100%29.62 "Hg3 mi
6:30 am59 °FLight rain. Low clouds.7 mph100%29.62 "Hg4 mi
6:00 am59 °FLight rain. Mostly cloudy.6 mph100%29.65 "Hg5 mi
5:30 am59 °FLight rain. Partly sunny.7 mph94%29.65 "HgN/A
5:00 am59 °FPassing clouds.6 mph94%29.65 "HgN/A
Weather by CustomWeather, © 2017

See weather overviewHow to use our weather pages